Location: Downe
(51.3167°N, 0.0500°E)
Time: 13:46:13
(UTC+00:00)

NOSS 2-2 (D) - Pass Details

Date: 17 November 2019
Orbit: 488 x 1720 km, 63.3° (Epoch: 30 November)

Event Time Altitude Azimuth Distance (km) Brightness Sun altitude
Exits shadow 04:28:47 65° 271° (W) 1,079 4.4 -26.4°
Maximum altitude 04:29:29 71° 230° (SW) 1,068 4.4 -26.3°
Drops below altitude 10° 04:37:13 10° 148° (SSE) 3,284 7.6 -25.1°
Sets 04:40:29 0° 147° (SSE) 4,437 8.4 -24.6°
